Somersworth, NH

6:38 PM EST on January 23, 2017 (GMT -0500)
Skyhaven

Weather History for KDAW - October, 2013

Change the Weather History Date:

Wednesday, October 30, 2013

  Actual Average (KPSM) Record (KPSM)
Temperature  
Mean Temperature 37 °F -  
Max Temperature 48 °F 53 °F 75 °F (1989)
Min Temperature 26 °F 36 °F 20 °F (1983)
Degree Days  
Heating Degree Days 28    
Moisture  
Dew Point 27 °F    
Average Humidity 69    
Maximum Humidity 88    
Minimum Humidity 52    
Precipitation  
Precipitation 0.00 in - - ()
Sea Level Pressure  
Sea Level Pressure 30.25 in    
Wind  
Wind Speed 4 mph (NW)    
Max Wind Speed 9 mph    
Max Gust Speed -    
Visibility 10 miles    
Events      
Averages and records for this station are not official NWS values.
T = Trace of Precipitation, MM = Missing Value Source: NWS Daily Summary

Daily Weather History Graph

Daily Weather History Graph

Search for Another Location

Airport or City:

Trip Planner

Search our weather history database for the weather conditions in past years. The results will help you decide how hot, cold, wet, or windy it might be!

Date:

Astronomy

Oct. 30, 2013 Rise Set
Actual Time 7:16 AM EDT 5:37 PM EDT
Civil Twilight 6:46 AM EDT 6:07 PM EDT
Nautical Twilight 6:13 AM EDT 6:40 PM EDT
Astronomical Twilight 5:40 AM EDT 7:13 PM EDT
Moon 2:55 AM EDT (10/30) 3:27 PM EDT (10/30)
Length of Visible Light 11h 20m
Length of Day
10h 21m
Waning Crescent, 17% of the Moon is Illuminated
Oct 30
Waning Crescent
Nov 3
New
Nov 10
First Quarter
Nov 17
Full
Nov 25
Last Quarter

Hourly Weather History & Observations

Time (EDT) Temp. Windchill Dew Point Humidity Pressure Visibility Wind Dir Wind Speed Gust Speed Precip Events Conditions
12:51 AM 26.1 °F 20.5 °F 19.9 °F 78% 30.35 in 10.0 mi NNW 4.6 mph - N/A   Clear
1:51 AM 27.0 °F 21.6 °F 19.9 °F 75% 30.32 in 10.0 mi NW 4.6 mph - N/A   Clear
2:51 AM 28.0 °F 24.2 °F 19.9 °F 72% 30.32 in 10.0 mi NNW 3.5 mph - N/A   Clear
3:51 AM 28.9 °F 25.2 °F 21.0 °F 72% 30.30 in 10.0 mi NW 3.5 mph - N/A   Partly Cloudy
4:51 AM 30.0 °F 26.5 °F 21.9 °F 72% 30.28 in 10.0 mi NNW 3.5 mph - N/A   Overcast
5:51 AM 30.9 °F - 21.0 °F 67% 30.29 in 10.0 mi Calm Calm - N/A   Overcast
6:51 AM 32.0 °F - 23.0 °F 69% 30.28 in 10.0 mi Calm Calm - N/A   Overcast
7:51 AM 32.0 °F - 25.0 °F 75% 30.28 in 10.0 mi Calm Calm - N/A   Overcast
8:51 AM 36.0 °F 32.1 °F 24.1 °F 62% 30.28 in 10.0 mi NW 4.6 mph - N/A   Overcast
9:51 AM 39.9 °F 36.7 °F 26.1 °F 58% 30.28 in 10.0 mi WNW 4.6 mph - N/A   Overcast
10:51 AM 37.9 °F 31.5 °F 32.0 °F 79% 30.28 in 10.0 mi NW 9.2 mph - 0.00 in   Overcast
11:51 AM 43.0 °F 38.8 °F 32.0 °F 65% 30.26 in 10.0 mi WNW 6.9 mph - N/A   Clear
12:51 PM 46.0 °F 43.1 °F 32.0 °F 58% 30.22 in 10.0 mi Variable 5.8 mph - N/A   Clear
1:51 PM 48.0 °F - 30.9 °F 52% 30.20 in 10.0 mi WNW 6.9 mph - N/A   Overcast
2:51 PM 46.9 °F - 30.9 °F 54% 30.19 in 10.0 mi WNW 9.2 mph - N/A   Mostly Cloudy
3:51 PM 48.0 °F - 30.9 °F 52% 30.18 in 10.0 mi Variable 4.6 mph - N/A   Mostly Cloudy
4:51 PM 46.9 °F - 30.0 °F 52% 30.19 in 10.0 mi Variable 4.6 mph - N/A   Clear
5:51 PM 44.1 °F - 30.9 °F 60% 30.19 in 10.0 mi Calm Calm - N/A   Clear
6:51 PM 43.0 °F - 30.9 °F 62% 30.21 in 10.0 mi Calm Calm - N/A   Clear
7:51 PM 39.0 °F 36.8 °F 30.9 °F 73% 30.22 in 10.0 mi SW 3.5 mph - N/A   Clear
8:51 PM 36.0 °F - 30.0 °F 79% 30.22 in 10.0 mi Calm Calm - N/A   Clear
9:51 PM 34.0 °F - 30.0 °F 85% 30.22 in 10.0 mi Calm Calm - N/A   Clear
10:51 PM 33.1 °F - 28.9 °F 85% 30.22 in 10.0 mi Calm Calm - N/A   Clear
11:51 PM 32.0 °F - 28.9 °F 88% 30.23 in 10.0 mi Calm Calm - N/A   Partly Cloudy